This demonstration page uses our WeatherBlox Daily Observations layout. Learn more.

Left ArrowRight Arrow

31.84235, -102.49876

Hourly Observations for May 17, 2015

Temp ( °F °C ) Dew Point ( °F °C ) Humidity (%) Winds ( mph kmh ) Pressure ( in mb ) Visibility ( mi km ) Precip ( " mm )
12:53 am 00:53 Clear 66 18.9 35 1.7 32 32 Calm 29.79 1009 10 16 0.00 0.00
1:53 am 01:53 Clear 65 18.3 35 1.7 33 33 Calm 29.79 1009 10 16 0.00 0.00
2:53 am 02:53 Clear 62 16.7 36 2.2 38 38 NW 5 7 29.81 1009 10 16 0.00 0.00
3:53 am 03:53 Clear 59 15 36 2.2 42 42 NNW 7 11 29.83 1010 10 16 0.00 0.00
4:53 am 04:53 Clear 60 15.6 31 -0.6 33 33 NNW 15 24 29.83 1010 10 16 0.00 0.00
5:53 am 05:53 Clear 56 13.3 34 1.1 44 44 NNW 5 7 29.87 1012 10 16 0.00 0.00
6:53 am 06:53 Sunny 54 12.2 36 2.2 51 51 NNW 6 9 29.89 1012 10 16 0.00 0.00
7:53 am 07:53 Sunny 60 15.6 39 3.9 46 46 NNW 3 6 29.90 1013 10 16 0.00 0.00
8:53 am 08:53 Sunny 67 19.4 36 2.2 32 32 N 6 9 29.92 1013 10 16 0.00 0.00
11:53 am 11:53 Sunny 75 23.9 33 0.6 22 22 SSW 8 13 29.95 1014 10 16 0.00 0.00
12:53 pm 12:53 Sunny 76 24.4 34 1.1 22 22 SW 8 13 29.96 1015 10 16 0.00 0.00
1:53 pm 13:53 Sunny 78 25.6 32 0 19 19 SW 14 22 29.94 1014 10 16 0.00 0.00
2:53 pm 14:53 Sunny 80 26.7 32 0 17 17 W 12 19 29.94 1014 10 16 0.00 0.00
3:53 pm 15:53 Sunny 81 27.2 33 0.6 18 18 SW 9 15 29.93 1013 10 16 0.00 0.00
4:53 pm 16:53 Sunny 81 27.2 32 0 17 17 SW 10 17 29.90 1013 10 16 0.00 0.00
5:53 pm 17:53 Sunny 82 27.8 33 0.6 17 17 S 13 20 29.90 1013 10 16 0.00 0.00
6:53 pm 18:53 Sunny 82 27.8 32 0 16 16 SW 10 17 29.90 1013 10 16 0.00 0.00
7:53 pm 19:53 Sunny 81 27.2 33 0.6 18 18 S 10 17 29.90 1013 10 16 0.00 0.00
8:53 pm 20:53 Clear 75 23.9 36 2.2 24 24 S 8 13 29.92 1013 10 16 0.00 0.00
9:53 pm 21:53 Clear 72 22.2 38 3.3 29 29 SSE 7 11 29.93 1014 10 16 0.00 0.00
10:53 pm 22:53 Clear 68 20 41 5 38 38 SE 6 9 29.96 1015 10 16 0.00 0.00
11:53 pm 23:53 Clear 69 20.6 40 4.4 35 35 SSE 6 9 29.97 1015 10 16 0.00 0.00

Powered by AerisWeather